Flag for U.S.A. Weather past 2 weeks in Frankfort, Kentucky, U.S.A.

Now
84 °F

Sunny.


Feels Like: 87 °F
Forecast: 67 / 90 °F
Wind: No wind

Location: Capital City Airport

Current Time: Sep 3, 2015 at 11:46:31 AM

Latest Report: Sep 3, 2015 at 10:53 AM


Visibility: 10 mi

Pressure: 30.03 "Hg

Humidity: 57%

Dew point: 67 °F

Location of FrankfortLocation

Historic Weather in Frankfort — Graph

°F

Frankfort temperature yesterday

Maximum temperature yesterday: 90 °F (at 4:53 PM)
Minimum temperature yesterday: 66 °F (at 6:53 AM)
Average temperature yesterday: 78 °F

Past Weeks' High & Low Weather Summary

 TemperatureHumidityPressure
High90 °F (Sep 2, 4:53 PM)96% (Aug 21, 8:03 AM)30.18 "Hg (Aug 21, 8:03 AM)
Low52 °F (Aug 26, 5:53 AM)39% (Aug 24, 3:53 PM)29.77 "Hg (Aug 19, 5:53 PM)
Average71 °F71%30.05 "Hg
* Reported Aug 19 10:01 AM — Sep 3 10:53 AM, Frankfort, Weather by CustomWeather, © 2015

Note: Actual official high and low records may vary slightly from our data, if they occured in-between our weather recording intervals... More about our weather records

Advertising

Frankfort weather history for previous 24 hours

 ConditionsComfort  
Time TempWeatherWind HumidityBarometerVisibility
10:53 AM
Thu, Sep 3
84 °FSunny.No wind57%30.03 "Hg10 mi
9:53 AM78 °FSunny.5 mph71%30.03 "Hg7 mi
8:53 AM73 °FSunny.No wind84%30.03 "Hg4 mi
7:53 AM67 °FFog.No wind90%30.03 "Hg4 mi
6:53 AM66 °FFog.3 mph90%30.01 "Hg5 mi
5:53 AM66 °FFog.No wind93%29.99 "Hg4 mi
4:53 AM67 °FFog.No wind93%30.00 "Hg4 mi
3:53 AM68 °FFog.No wind90%29.99 "Hg4 mi
2:53 AM69 °FFog.No wind90%29.99 "Hg5 mi
1:53 AM69 °FFog.3 mph90%30.00 "Hg5 mi
12:53 AM71 °FFog.No wind87%30.01 "Hg6 mi
11:53 PM
Wed, Sep 2
71 °FClear.No wind87%30.01 "Hg7 mi
10:53 PM73 °FClear.3 mph79%30.02 "Hg8 mi
9:53 PM74 °FClear.No wind76%30.01 "Hg9 mi
8:53 PM76 °FSunny.No wind74%30.00 "Hg10 mi
7:53 PM82 °FSunny.No wind58%30.00 "Hg10 mi
6:53 PM87 °FSunny.5 mph48%29.99 "Hg10 mi
5:53 PM88 °FSunny.3 mph45%30.00 "Hg10 mi
4:53 PM90 °FSunny.No wind42%30.01 "Hg10 mi
3:53 PM88 °FSunny.5 mph46%30.03 "Hg10 mi
2:53 PM88 °FScattered clouds.6 mph46%30.06 "Hg10 mi
1:53 PM86 °FSunny.5 mph51%30.09 "Hg10 mi
12:53 PM86 °FPassing clouds.No wind51%30.10 "Hg10 mi
11:53 AM85 °FSunny.5 mph53%30.12 "Hg10 mi
Weather by CustomWeather, © 2015

See weather overviewHow to use our weather pages